Location: Silverdale
(47.6506°N, 122.6941°W)
Time: 04:05:20
(UTC+00:00)

Altair - Pass Details

Date: 04 October 2022
Orbit: 1501 x 1682 km, 47.2° (Epoch: 05 December)

Event Time Altitude Azimuth Distance (km) Brightness Sun altitude
Rises 13:59:15 0° 246° (WSW) 4,777 9.5 -3.4°
Reaches altitude 10° 14:02:17 10° 246° (WSW) 3,817 9.0 -2.8°
Maximum altitude 14:12:04 77° 162° (SSE) 1,683 7.9 -1.2°
Drops below altitude 10° 14:22:10 10° 79° (ENE) 3,939 11.3 0.5°
Sets 14:25:21 0° 78° (ENE) 4,935 11.8 1.0°
